Location: ?????
(38.2579°N, 22.9711°E)
Time: 06:02:15
(UTC+00:00)

Cosmos 2227 Rocket - Pass Details

Date: 13 December 2025
Orbit: 838 x 844 km, 71.0° (Epoch: 20 January)

Event Time Altitude Azimuth Distance (km) Brightness Sun altitude
Rises 16:25:49 0° 333° (NNW) 3,399 5.5 -14.7°
Reaches altitude 10° 16:28:17 10° 331° (NNW) 2,461 4.8 -15.2°
Maximum altitude 16:33:50 62° 252° (WSW) 946 2.7 -16.2°
Drops below altitude 10° 16:39:22 10° 173° (S) 2,450 4.7 -17.3°
Sets 16:41:50 0° 169° (S) 3,382 5.4 -17.7°
